| time (UTC) | temp F | wind direction | speed MPH | gust MPH | rain 1hr in | rain 24hr in | rain mn in | humidity % | barometer mb |
| 20260902100014 | 77 | 159 | 0.0 | 5.0 | 0.00 | 0.00 | 0.00 | 86 | 1012.9 |
| 20260902094526 | 77 | 144 | 1.0 | 4.0 | 0.00 | 0.00 | 0.00 | 85 | 1012.9 |
| 20260902093043 | 77 | 165 | 0.0 | 3.0 | 0.00 | 0.00 | 0.00 | 85 | 1013.1 |
| 20260902091559 | 76 | 153 | 1.0 | 4.0 | 0.00 | 0.00 | 0.00 | 85 | 1013.1 |
| 20260902090014 | 76 | 148 | 0.0 | 1.0 | 0.00 | 0.00 | 0.00 | 84 | 1013.1 |
| 20260902084530 | 76 | 154 | 0.0 | 1.0 | 0.00 | 0.00 | 0.00 | 83 | 1013.1 |
| 20260902083044 | 76 | 152 | 0.0 | 1.0 | 0.00 | 0.00 | 0.00 | 82 | 1013.2 |
| 20260902081607 | 76 | 139 | 0.0 | 1.0 | 0.00 | 0.00 | 0.00 | 81 | 1013.2 |
| 20260902080014 | 77 | 134 | 0.0 | 0.0 | 0.00 | 0.00 | 0.00 | 79 | 1013.3 |
| 20260902074526 | 78 | 144 | 0.0 | 0.0 | 0.00 | 0.00 | 0.00 | 78 | 1013.3 |
| 20260902073037 | 79 | 153 | 0.0 | 1.0 | 0.00 | 0.00 | 0.00 | 78 | 1013.2 |
| 20260902071556 | 79 | 156 | 0.0 | 1.0 | 0.00 | 0.00 | 0.00 | 77 | 1013.2 |
| 20260902070010 | 80 | 166 | 1.0 | 4.0 | 0.00 | 0.00 | 0.00 | 76 | 1013.2 |
| 20260902064530 | 80 | 150 | 0.0 | 4.0 | 0.00 | 0.00 | 0.00 | 75 | 1013.1 |
| 20260902063103 | 80 | 153 | 0.0 | 2.0 | 0.00 | 0.00 | 0.00 | 74 | 1013.2 |
| 20260902061608 | 81 | 115 | 0.0 | 1.0 | 0.00 | 0.00 | 0.00 | 73 | 1013.1 |
| 20260902060013 | 81 | 137 | 0.0 | 6.0 | 0.00 | 0.00 | 0.00 | 71 | 1012.9 |
| 20260902054538 | 82 | 165 | 3.0 | 8.0 | 0.00 | 0.00 | 0.00 | 70 | 1012.9 |
| 20260902053020 | 82 | 144 | 3.0 | 7.0 | 0.00 | 0.00 | 0.00 | 69 | 1012.8 |
| 20260902051556 | 82 | 174 | 2.0 | 6.0 | 0.00 | 0.00 | 0.00 | 69 | 1012.7 |
| 20260902050100 | 83 | 160 | 3.0 | 7.0 | 0.00 | 0.00 | 0.00 | 67 | 1012.7 |
| 20260902044514 | 83 | 144 | 3.0 | 8.0 | 0.00 | 0.00 | 0.00 | 66 | 1012.6 |
| 20260902043031 | 84 | 152 | 3.0 | 8.0 | 0.00 | 0.00 | 0.00 | 64 | 1012.6 |
| 20260902041602 | 84 | 157 | 5.0 | 10.0 | 0.00 | 0.00 | 0.00 | 63 | 1012.5 |
| 20260902040002 | 84 | 132 | 5.0 | 9.0 | 0.00 | 0.00 | 0.00 | 62 | 1012.3 |
| 20260902034520 | 85 | 161 | 5.0 | 13.0 | 0.00 | 0.00 | 0.00 | 62 | 1012.3 |
| 20260902033143 | 85 | 150 | 4.0 | 11.0 | 0.00 | 0.00 | 0.00 | 63 | 1012.3 |
| 20260902031514 | 85 | 131 | 5.0 | 12.0 | 0.00 | 0.00 | 0.00 | 62 | 1012.1 |
| 20260902030028 | 86 | 200 | 6.0 | 12.0 | 0.00 | 0.00 | 0.00 | 62 | 1011.8 |
| 20260902024556 | 87 | 163 | 5.0 | 14.0 | 0.00 | 0.00 | 0.00 | 59 | 1011.5 |
| 20260902023018 | 88 | 154 | 4.0 | 11.0 | 0.00 | 0.00 | 0.00 | 57 | 1011.4 |
| 20260902021539 | 88 | 143 | 1.0 | 7.0 | 0.00 | 0.00 | 0.00 | 54 | 1011.0 |
| 20260902020053 | 89 | 155 | 3.0 | 9.0 | 0.00 | 0.00 | 0.00 | 52 | 1010.7 |
| 20260902014513 | 90 | 153 | 3.0 | 8.0 | 0.00 | 0.00 | 0.00 | 51 | 1010.5 |
| 20260902013025 | 91 | 128 | 2.0 | 8.0 | 0.00 | 0.00 | 0.00 | 50 | 1010.4 |
| 20260902011539 | 91 | 155 | 0.0 | 0.0 | 0.00 | 0.00 | 0.00 | 45 | 1010.1 |
| 20260902010100 | 93 | 167 | 0.0 | 0.0 | 0.00 | 0.00 | 0.00 | 42 | 1010.0 |
| 20260902004520 | 95 | 150 | 0.0 | 1.0 | 0.00 | 0.00 | 0.00 | 41 | 1009.9 |
| 20260902003108 | 96 | 108 | 0.0 | 4.0 | 0.00 | 0.00 | 0.00 | 39 | 1010.0 |
| 20260902001502 | 97 | 124 | 1.0 | 6.0 | 0.00 | 0.00 | 0.00 | 39 | 1010.0 |
| 20260902000033 | 98 | 152 | 2.0 | 6.0 | 0.00 | 0.00 | 0.00 | 38 | 1010.0 |
| 20260901234542 | 98 | 138 | 4.0 | 8.0 | 0.00 | 0.00 | 0.00 | 37 | 1010.0 |
| 20260901233102 | 99 | 161 | 1.0 | 5.0 | 0.00 | 0.00 | 0.00 | 37 | 1010.0 |
| 20260901231516 | 98 | 165 | 1.0 | 3.0 | 0.00 | 0.00 | 0.00 | 38 | 1009.9 |
| 20260901230035 | 97 | 162 | 1.0 | 3.0 | 0.00 | 0.00 | 0.00 | 38 | 1009.9 |
| 20260901224554 | 98 | 150 | 1.0 | 3.0 | 0.00 | 0.00 | 0.00 | 37 | 1010.0 |
| 20260901223008 | 98 | 136 | 1.0 | 6.0 | 0.00 | 0.00 | 0.00 | 37 | 1010.0 |
| 20260901221537 | 99 | 154 | 2.0 | 7.0 | 0.00 | 0.00 | 0.00 | 36 | 1010.0 |
| 20260901220054 | 100 | 152 | 2.0 | 7.0 | 0.00 | 0.00 | 0.00 | 35 | 1010.0 |
| 20260901214528 | 100 | 155 | 2.0 | 5.0 | 0.00 | 0.00 | 0.00 | 35 | 1010.0 |
| 20260901213051 | 100 | 174 | 3.0 | 9.0 | 0.00 | 0.00 | 0.00 | 35 | 1010.3 |
| 20260901211504 | 100 | 159 | 2.0 | 8.0 | 0.00 | 0.00 | 0.00 | 35 | 1010.4 |
| 20260901210026 | 99 | 148 | 3.0 | 7.0 | 0.00 | 0.00 | 0.00 | 35 | 1010.7 |
| 20260901204551 | 99 | 155 | 2.0 | 8.0 | 0.00 | 0.00 | 0.00 | 35 | 1011.0 |
| 20260901203016 | 99 | 149 | 3.0 | 8.0 | 0.00 | 0.00 | 0.00 | 35 | 1011.2 |
| 20260901201534 | 99 | 160 | 1.0 | 7.0 | 0.00 | 0.00 | 0.00 | 36 | 1011.6 |
| 20260901200050 | 100 | 167 | 2.0 | 8.0 | 0.00 | 0.00 | 0.00 | 35 | 1011.7 |
| 20260901194502 | 99 | 149 | 4.0 | 7.0 | 0.00 | 0.00 | 0.00 | 36 | 1012.0 |
| 20260901193030 | 99 | 145 | 5.0 | 11.0 | 0.00 | 0.00 | 0.00 | 36 | 1012.2 |
| 20260901191601 | 98 | 162 | 2.0 | 8.0 | 0.00 | 0.00 | 0.00 | 37 | 1012.2 |
| 20260901190014 | 97 | 155 | 4.0 | 8.0 | 0.00 | 0.00 | 0.00 | 37 | 1012.5 |
| 20260901184528 | 96 | 141 | 2.0 | 6.0 | 0.00 | 0.00 | 0.00 | 39 | 1012.8 |
| 20260901183046 | 96 | 167 | 2.0 | 9.0 | 0.00 | 0.00 | 0.00 | 40 | 1013.1 |
| 20260901181602 | 96 | 156 | 2.0 | 7.0 | 0.00 | 0.00 | 0.00 | 40 | 1013.3 |
| 20260901180024 | 96 | 181 | 3.0 | 9.0 | 0.00 | 0.00 | 0.00 | 40 | 1013.7 |
| 20260901174544 | 95 | 170 | 3.0 | 7.0 | 0.00 | 0.00 | 0.00 | 44 | 1013.9 |
| 20260901173053 | 94 | 123 | 5.0 | 9.0 | 0.00 | 0.00 | 0.00 | 44 | 1014.1 |
| 20260901171508 | 94 | 134 | 4.0 | 9.0 | 0.00 | 0.00 | 0.00 | 43 | 1014.3 |
| 20260901170023 | 92 | 148 | 1.0 | 5.0 | 0.00 | 0.00 | 0.00 | 48 | 1014.4 |
| 20260901164612 | 92 | 123 | 4.0 | 8.0 | 0.00 | 0.00 | 0.00 | 48 | 1014.5 |
| 20260901163042 | 92 | 146 | 2.0 | 5.0 | 0.00 | 0.00 | 0.00 | 48 | 1014.6 |
| 20260901161540 | 91 | 155 | 0.0 | 5.0 | 0.00 | 0.00 | 0.00 | 53 | 1014.7 |
| 20260901160100 | 90 | 150 | 2.0 | 6.0 | 0.00 | 0.00 | 0.00 | 52 | 1014.7 |
| 20260901154531 | 89 | 123 | 3.0 | 5.0 | 0.00 | 0.00 | 0.00 | 56 | 1014.8 |
| 20260901153038 | 89 | 158 | 4.0 | 7.0 | 0.00 | 0.00 | 0.00 | 59 | 1014.8 |
| 20260901151550 | 87 | 161 | 0.0 | 5.0 | 0.00 | 0.00 | 0.00 | 65 | 1014.8 |
| 20260901150006 | 86 | 143 | 3.0 | 6.0 | 0.00 | 0.00 | 0.00 | 68 | 1014.8 |
| 20260901144524 | 85 | 145 | 2.0 | 6.0 | 0.00 | 0.00 | 0.00 | 71 | 1014.8 |
| 20260901143048 | 85 | 202 | 1.0 | 6.0 | 0.00 | 0.00 | 0.00 | 74 | 1014.8 |
| 20260901141518 | 84 | 147 | 0.0 | 3.0 | 0.00 | 0.00 | 0.00 | 80 | 1014.7 |
| 20260901140032 | 83 | 151 | 0.0 | 2.0 | 0.00 | 0.00 | 0.00 | 82 | 1014.7 |
| 20260901134600 | 80 | 122 | 0.0 | 1.0 | 0.00 | 0.00 | 0.00 | 85 | 1014.8 |
| 20260901133005 | 78 | 131 | 1.0 | 3.0 | 0.00 | 0.00 | 0.00 | 87 | 1014.7 |
| 20260901131523 | 77 | 164 | 0.0 | 1.0 | 0.00 | 0.00 | 0.00 | 89 | 1014.6 |
| 20260901130040 | 75 | 136 | 0.0 | 1.0 | 0.00 | 0.00 | 0.00 | 89 | 1014.4 |
| 20260901124559 | 73 | 134 | 0.0 | 0.0 | 0.00 | 0.00 | 0.00 | 89 | 1014.1 |
| 20260901123011 | 73 | 137 | 0.0 | 0.0 | 0.00 | 0.00 | 0.00 | 89 | 1014.1 |
| 20260901121537 | 73 | 133 | 0.0 | 0.0 | 0.00 | 0.00 | 0.00 | 88 | 1013.9 |
| 20260901120018 | 74 | 147 | 0.0 | 0.0 | 0.00 | 0.00 | 0.00 | 88 | 1014.0 |
| 20260901114549 | 74 | 144 | 0.0 | 0.0 | 0.00 | 0.00 | 0.00 | 88 | 1014.1 |
| 20260901113007 | 75 | 158 | 0.0 | 0.0 | 0.00 | 0.00 | 0.00 | 88 | 1014.1 |
| 20260901111526 | 75 | 162 | 0.0 | 0.0 | 0.00 | 0.00 | 0.00 | 88 | 1014.2 |
| 20260901110045 | 75 | 185 | 0.0 | 0.0 | 0.00 | 0.00 | 0.00 | 88 | 1014.2 |
| 20260901104559 | 76 | 139 | 0.0 | 1.0 | 0.00 | 0.00 | 0.00 | 88 | 1014.1 |
| 20260901103016 | 75 | 165 | 0.0 | 0.0 | 0.00 | 0.00 | 0.00 | 88 | 1014.2 |
| 20260901101529 | 75 | 133 | 0.0 | 1.0 | 0.00 | 0.00 | 0.00 | 88 | 1014.0 |